Content
SEND FEEDBACK

Daily
Averages
Monthly
Summary
United States of America

ANN ARBOR, MICHIGAN


Home > North America > United States > Michigan
Elevation: 759 feet     Latitude: 42 17N     Longitude: 083 43W

WEATHER
 
SELECT A DAY
Number of Records: 209,138;   Date Range: 1/1/95 - 12/25/14
 
SHARE

PRINT THIS DATA

[ ← Previous Day ]
WEATHER ALMANAC - DECEMBER 31, 2012
[ Next Day → ]
[ °C ]   °F
Weather ElementAverageHighLow
Temperature28.6 °F34 °F (1:53 pm)14 °F (1:53 am)
Dewpoint21.7 °F27 °F (5:53 pm)9 °F (1:53 am)
Humidity75.4 %85 % (2:53 am)63 % (11:53 pm)
Barometer30.03 in30.18 in (1:53 am)29.95 in (2:53 pm)
Wind Speed10.8 mph19.6 mph (1:53 pm)
Wind Gust24.2 mph (1:53 pm)
Weather ElementAverage
Visibility8.9 mi
Wind DirectionWSW (247.5 °)

Weather ElementTotal
Precipitation---
Heating Degree Days41 (Base 65)
Averaged from 24 records on December 31, 2012
WEATHER CONDITIONS BREAKOUT
WIND DIRECTION BREAKOUT
WEATHER BY HOUR - DECEMBER 31, 2012
[ °C ]   °F
Local TimeTemperatureDewpointHumidityBarometerVisibilityWind DirectionWind SpeedGust SpeedPrecipitationEventsConditions
1:53 AM14.0 °F9.0 °F80 %30.18 in6.0 miWSW (240°)4.6 mphHaze
2:53 AM19.9 °F16.0 °F85 %30.15 in7.0 miSW (220°)6.9 mphClear
3:53 AM21.9 °F17.1 °F82 %30.12 in8.0 miSSW (210°)9.2 mphClear
4:53 AM24.1 °F18.0 °F77 %30.09 in9.0 miSW (220°)11.5 mphClear
5:53 AM25.0 °F18.0 °F75 %30.07 in10.0 miSW (220°)12.7 mphClear
6:53 AM24.1 °F19.0 °F81 %30.07 in9.0 miSW (230°)9.2 mphClear
7:53 AM25.0 °F19.9 °F81 %30.05 in9.0 miSW (230°)9.2 mphClear
8:53 AM26.1 °F19.9 °F78 %30.04 in7.0 miSW (220°)8.1 mphClear
9:53 AM28.0 °F21.0 °F75 %30.04 in8.0 miSW (220°)10.4 mphClear
10:53 AM28.9 °F21.9 °F75 %30.04 in9.0 miSW (220°)12.7 mphClear
11:53 AM30.9 °F21.9 °F69 %30.01 in10.0 miSW (220°)11.5 mphClear
12:11 PM30.2 °F23.0 °F75 %29.97 in10.0 miSW (230°)10.4 mphMostly Cloudy
12:53 PM32.0 °F23.0 °F69 %29.97 in10.0 miSW (230°)11.5 mphOvercast
1:53 PM34.0 °F25.0 °F70 %29.96 in10.0 miWSW (250°)19.6 mph24.2 mphOvercast
2:53 PM34.0 °F26.1 °F73 %29.95 in10.0 miWest (260°)12.7 mphOvercast
3:53 PM34.0 °F26.1 °F73 %29.98 in10.0 miWSW (250°)10.4 mphOvercast
4:53 PM34.0 °F26.1 °F73 %29.96 in10.0 miWSW (250°)11.5 mphOvercast
5:53 PM34.0 °F27.0 °F75 %29.97 in10.0 miWSW (250°)11.5 mphOvercast
6:53 PM34.0 °F27.0 °F75 %29.97 in10.0 miWest (270°)11.5 mphOvercast
7:53 PM34.0 °F27.0 °F75 %30.00 in10.0 miWNW (290°)9.2 mphOvercast
8:24 PM32.0 °F26.6 °F80 %29.97 in6.0 miNW (310°)11.5 mph19.6 mphHaze
8:53 PM30.9 °F26.1 °F82 %30.01 in6.0 miNW (310°)12.7 mph18.4 mphHaze
11:03 PM28.4 °F19.4 °F69 %30.01 in10.0 miWNW (290°)11.5 mphMostly Cloudy
11:53 PM28.0 °F17.1 °F63 %30.04 in10.0 miWNW (300°)9.2 mphOvercast
Hourly data recorded from KARB, located miles away from Ann Arbor, Michigan







STORIES FROM OUR PARTNERS